Temperature
18 17 17 17 17 18 18 17 17 17 17 17 17 18 17 17 17 17 17 17 17 17 17 17 17 17 17 17 17 17 17 17 16 16 16 16 16 16 16 16 16 16 16
18 18 17 17 18 18 18 18 17 17 17 17 17 17 17 17 17 17 17 17 17 17 17 17 17 17 17 17 17 16 16 16 16 16 16 16 16 16 16 16 16 16 16
18 18 18 18 18 18 17 17 17 18 17 17 17 17 17 17 17 17 17 17 17 17 17 17 17 17 17 17 16 16 16 16 16 16 16 16 16 16 16 16 16 16 16
18 18 18 18 18 18 18 18 17 17 17 17 17 17 17 17 17 17 17 17 17 17 17 17 17 17 17 16 16 16 16 16 16 16 16 16 16 16 16 16 16 16 16
18 18 18 18 18 18 18 18 18 17 17 17 17 17 17 17 17 17 17 17 16 16 16 16 16 16 16 16 16 16 16 16 16 16 16 16 16 16 16 16 16 16 16
18 18 18 18 18 18 18 18 18 17 17 17 17 17 17 17 17 17 16 16 16 16 16 16 16 16 16 16 16 16 16 16 16 16 16 16 16 16 16 16 16 15 15
18 18 18 18 18 18 18 17 17 17 17 17 17 17 17 17 16 16 16 16 16 16 16 16 16 15 15 16 16 16 16 16 16 16 16 16 16 16 16 15 15 15 15
18 18 18 17 18 18 17 17 17 17 17 17 17 17 17 17 16 16 16 16 16 16 16 15 15 15 15 15 15 16 16 15 15 15 16 16 16 15 15 15 15 15 15
18 18 18 18 18 17 17 17 17 17 17 17 17 18 18 18 16 16 16 16 15 15 15 15 15 15 15 15 15 15 15 15 15 15 15 15 15 15 15 15 15 15 15
17 17 17 17 17 17 17 17 17 17 17 17 17 17 17 17 17 16 16 15 15 15 15 15 15 15 15 15 15 15 15 15 15 15 15 15 15 15 15 15 15 15 14
18 17 17 17 17 17 17 17 17 17 17 17 17 17 17 17 17 17 16 16 15 15 15 15 15 14 14 14 14 15 15 15 15 15 14 14 14 14 14 14 14 14 14
18 17 17 17 17 17 17 17 17 17 17 17 17 17 17 17 17 17 16 16 15 15 15 14 14 14 14 14 14 14 14 14 14 14 14 14 14 14 14 14 14 14 14
18 17 17 17 17 17 17 17 17 17 17 17 17 17 17 17 17 17 17 16 15 15 14 14 14 14 14 14 14 14 14 14 14 14 14 14 14 14 14 14 14 13 13
18 18 17 17 17 17 17 17 17 17 17 17 17 17 17 17 16 16 16 16 16 15 15 14 14 14 14 13 14 14 14 14 14 14 14 14 14 14 14 13 13 13 13
18 18 18 17 17 17 17 17 17 17 17 17 17 17 16 16 16 16 16 16 16 16 15 14 14 14 13 13 13 13 13 13 13 13 13 13 13 13 13 13 13 13 13
18 18 18 17 17 17 17 17 17 17 17 17 17 17 16 16 16 16 16 16 16 16 15 15 14 14 13 13 13 13 13 13 13 13 13 13 13 13 13 13 13 12 12
18 18 18 17 17 17 17 17 17 17 17 16 16 16 16 16 16 16 15 15 15 15 15 14 14 14 13 13 13 12 12 12 12 13 12 12 12 12 12 12 12 12 12
18 18 18 18 17 17 17 17 17 17 16 16 16 16 16 16 16 16 15 15 15 15 15 14 14 13 13 13 13 12 12 12 12 12 12 12 12 12 12 12 12 12 11
19 18 18 18 18 17 17 17 17 17 16 16 16 16 16 16 16 15 15 15 15 15 14 14 14 13 13 13 12 12 12 12 12 12 12 12 12 12 11 11 11 11 11
19 18 18 18 17 17 17 17 17 16 16 16 16 16 16 16 15 15 15 15 15 14 14 14 14 13 13 13 12 12 12 12 12 12 11 11 11 11 11 11 11 11 11
18 19 18 18 17 17 17 17 16 16 16 16 16 16 16 16 16 15 15 15 14 14 14 14 14 13 13 13 12 12 12 12 12 11 11 11 11 11 11 11 11 11 10
18 18 18 18 17 17 17 17 17 16 16 16 16 15 15 15 15 15 15 15 14 14 14 14 14 13 13 13 12 12 12 12 12 11 11 11 11 11 11 11 11 10 10
19 18 18 18 17 17 17 17 17 16 16 16 15 15 15 15 15 15 15 14 14 14 14 14 14 13 13 13 12 12 12 12 12 12 11 11 11 11 11 11 11 10 10
18 18 18 18 17 17 17 17 17 16 16 15 15 15 15 15 15 15 14 14 14 14 13 13 13 13 13 12 12 12 12 12 11 11 11 11 11 11 11 10 11 10 10
18 18 18 17 17 17 17 17 16 16 15 15 15 15 15 14 15 15 14 14 13 13 13 13 13 13 13 13 12 12 11 12 12 11 11 11 11 11 11 11 10 10 10
18 17 17 17 17 17 16 16 16 15 15 15 15 15 15 14 14 14 14 13 13 13 13 13 13 13 12 12 12 12 12 12 12 12 11 11 11 11 11 11 10 10 10
Wind_Speed
3 4 3 2 2 3 4 3 3 3 3 3 3 3 2 3 3 2 5 7 6 4 4 4 5 6 6 7 8 8 9 10 11 11 11 12 11 11 11 12 12 11 11
3 3 3 3 2 2 3 3 3 3 2 2 2 3 2 3 3 2 3 6 6 4 3 3 3 3 4 6 6 6 8 10 10 11 11 12 12 12 11 12 12 12 13
3 2 2 3 3 3 3 3 3 3 2 3 3 3 2 2 3 3 2 3 5 6 5 4 3 2 3 4 4 5 5 6 8 9 11 11 11 11 11 11 12 12 13
2 1 2 2 3 3 3 3 2 2 2 2 2 2 3 3 3 3 3 3 3 4 6 5 4 3 3 2 3 4 6 6 6 6 8 10 10 9 9 9 8 8 10
2 1 2 2 2 2 2 2 3 2 3 2 3 3 3 3 3 3 3 4 4 3 4 6 5 4 4 3 1 2 4 5 5 5 7 10 10 9 9 8 8 7 7
2 1 2 2 2 2 2 2 2 2 2 2 2 4 3 3 3 3 3 3 3 3 3 4 4 4 4 3 3 3 1 3 4 4 4 7 9 9 9 8 7 7 7
2 1 1 2 2 2 2 2 3 4 3 3 3 3 3 4 4 3 3 3 3 4 4 4 3 2 4 4 4 5 4 3 0 2 3 4 6 6 6 6 6 5 6
1 2 2 1 2 2 3 2 3 2 2 3 2 2 2 3 3 3 3 3 3 3 4 4 4 4 3 3 5 5 4 4 3 2 2 3 4 5 5 5 5 5 4
1 1 1 0 1 2 2 3 3 3 3 2 2 2 1 1 2 2 3 3 3 3 3 4 4 4 4 4 4 5 5 5 5 4 3 2 3 4 4 5 5 5 5
1 1 1 1 1 1 1 3 2 2 3 2 2 1 1 1 1 2 2 3 3 3 3 3 4 4 5 5 6 8 8 7 7 5 4 4 3 3 4 4 4 4 4
1 1 1 0 1 1 1 1 1 3 3 2 2 1 1 1 2 2 2 2 2 2 2 2 3 3 5 5 6 9 9 9 8 7 6 5 4 3 3 3 3 3 3
1 1 1 0 1 1 1 2 2 2 2 2 2 2 2 1 1 1 2 3 2 2 2 2 2 3 4 6 8 10 10 10 9 8 8 7 6 5 4 4 4 4 4
2 1 0 0 0 0 0 1 1 2 2 2 2 2 2 2 2 1 1 2 2 2 2 2 2 3 4 5 7 9 10 10 9 9 9 9 9 8 7 5 5 4 5
1 2 1 1 0 1 1 1 1 1 1 2 2 2 2 2 2 2 2 2 3 3 3 2 2 3 4 5 6 6 8 9 9 9 9 9 10 10 10 9 7 7 7
2 3 2 2 1 1 1 1 1 1 1 2 2 2 2 1 2 2 2 3 3 2 2 3 3 3 4 4 4 6 6 8 8 8 8 8 9 9 10 10 10 10 10
1 2 2 2 1 1 1 1 1 0 1 1 1 1 2 2 2 2 2 3 3 3 1 3 3 4 3 4 5 5 6 8 8 7 7 7 8 8 9 9 10 9 9
3 2 2 2 1 1 1 1 1 1 1 1 1 2 2 1 2 2 3 3 2 2 3 3 3 4 4 3 4 4 4 4 7 7 7 7 7 7 8 8 8 9 9
3 3 3 2 2 1 1 1 1 1 1 1 1 2 2 2 2 2 2 2 2 2 3 4 4 4 4 4 4 3 3 4 5 8 7 7 6 6 6 7 7 7 8
4 4 3 3 2 2 2 2 2 2 2 2 2 2 2 2 2 2 2 2 2 3 3 4 5 4 4 4 4 3 3 2 4 7 9 8 6 6 5 6 6 6 7
5 5 4 4 3 3 2 2 2 2 2 2 2 2 2 2 1 2 2 3 3 3 4 5 5 5 4 4 4 4 3 3 3 4 4 6 8 8 7 6 6 6 6
6 5 5 5 4 3 2 2 2 2 2 2 3 2 2 3 4 1 0 2 3 3 4 4 5 4 4 4 4 3 3 3 3 3 3 4 6 6 7 8 7 7 7
6 6 6 5 4 2 4 3 1 2 2 3 2 2 3 4 4 3 3 3 1 3 3 4 4 4 5 5 4 4 3 3 3 3 3 3 3 3 4 5 8 9 9
7 7 6 5 4 3 5 4 1 2 2 2 2 2 2 3 4 3 4 3 2 1 1 3 3 4 4 4 4 5 4 4 2 3 4 3 3 3 4 5 10 10 10
7 6 6 6 5 4 6 5 3 4 3 3 2 2 2 2 2 2 3 4 4 3 3 4 3 3 3 3 5 5 4 4 3 3 4 4 3 3 3 5 11 11 11
7 6 6 6 5 5 6 6 5 4 3 3 3 3 3 3 3 1 3 4 3 3 4 3 1 1 1 3 3 4 4 5 4 4 4 4 3 3 3 4 8 13 12
6 6 5 5 5 5 6 7 6 4 4 4 4 4 3 2 4 3 4 4 4 4 3 4 4 5 6 6 7 6 5 5 4 4 3 4 4 3 4 4 4 7 9
Wind_Direction
112 107 101 110 115 117 132 125 113 106 108 116 118 115 100 99 102 118 118 126 134 143 166 182 194 200 204 206 208 209 209 216 219 220 221 221 222 222 221 220 218 218 220
109 118 131 124 118 115 104 111 118 114 107 91 102 108 106 102 102 121 130 131 134 136 147 163 177 193 201 210 210 211 214 219 221 224 224 224 225 227 227 227 225 225 226
115 133 126 135 128 125 124 130 124 128 131 123 107 98 107 115 119 125 136 139 135 127 113 108 108 125 175 186 196 204 214 218 223 225 228 225 226 228 231 233 232 232 231
123 137 122 119 126 144 142 141 149 127 122 118 112 109 109 107 102 103 108 113 115 116 119 111 100 93 108 150 190 205 212 216 221 227 226 222 223 224 229 235 230 229 231
140 153 119 107 147 149 152 164 126 139 128 121 128 122 100 96 93 91 90 89 94 99 112 123 120 98 87 82 95 203 206 204 210 220 219 221 221 220 226 225 223 219 220
139 154 150 131 162 148 146 127 133 142 138 140 114 93 85 88 86 85 90 93 93 91 93 105 131 131 103 72 50 55 133 198 210 217 223 221 217 219 214 214 212 216 219
133 172 129 137 178 149 150 159 157 156 155 142 141 122 106 90 83 89 79 83 83 75 68 70 74 91 120 111 68 54 52 53 122 209 210 205 203 202 200 198 200 204 214
171 165 151 180 150 156 166 171 179 191 180 185 199 178 161 136 103 78 89 91 84 84 78 72 67 54 52 83 77 68 52 49 51 77 166 186 181 182 179 181 181 189 197
147 103 157 176 177 202 166 188 199 206 209 214 240 261 230 139 125 106 78 78 81 76 76 75 73 63 53 54 67 72 62 55 57 70 80 128 164 169 168 170 175 183 184
117 133 158 169 242 234 171 221 197 232 228 227 209 259 322 87 184 152 143 118 99 85 69 66 70 68 62 62 63 60 67 62 60 63 67 75 101 154 165 175 175 180 182
122 100 100 119 256 257 209 256 233 253 244 253 234 190 172 184 217 211 163 150 125 101 95 86 78 71 67 61 62 64 67 65 61 60 63 68 76 91 123 145 151 152 162
167 147 164 328 275 303 225 237 248 238 262 272 270 241 225 239 220 205 187 175 143 113 100 92 88 78 70 68 68 69 69 67 62 62 65 68 72 78 86 99 109 113 118
170 159 169 208 326 7 272 261 242 273 263 254 256 257 256 261 256 253 200 169 155 145 133 118 94 92 87 86 80 82 76 70 66 65 67 69 70 73 79 85 92 101 99
157 149 164 171 201 267 279 263 263 242 238 248 252 271 268 260 239 220 204 191 187 171 158 134 118 111 99 93 90 100 85 80 75 73 72 73 73 74 75 78 83 89 92
174 171 187 189 201 250 293 269 278 276 222 227 222 220 245 222 215 230 214 215 225 209 175 163 156 130 127 106 107 101 93 90 87 82 79 79 79 79 79 81 83 85 89
164 178 185 186 201 226 242 265 237 173 243 237 242 236 236 210 200 210 211 221 236 231 211 154 147 138 131 129 122 111 108 113 100 94 89 86 84 83 85 86 86 87 88
170 182 198 201 210 224 248 247 261 229 227 221 221 202 216 223 214 202 207 215 214 210 178 150 136 134 147 141 132 134 131 126 111 110 107 101 95 91 92 93 92 91 89
182 185 195 201 210 198 221 232 239 226 217 209 204 196 200 185 194 227 216 207 199 194 183 162 155 157 164 158 154 165 143 132 128 127 131 122 113 107 105 106 102 101 97
184 190 194 199 199 191 199 212 218 217 211 204 197 191 190 180 194 187 215 202 195 181 170 168 167 160 167 164 166 166 153 158 154 145 153 150 141 134 129 126 124 120 116
188 190 191 194 192 190 194 205 201 201 205 196 183 173 169 178 172 187 199 199 189 176 174 176 168 167 165 170 187 181 177 187 187 163 154 158 160 164 158 155 153 149 145
195 187 186 189 190 186 192 197 198 185 192 184 158 151 130 88 54 20 247 173 178 190 183 177 172 172 172 180 196 196 189 192 187 193 180 175 172 177 171 173 175 174 171
190 185 186 187 190 185 99 83 285 148 163 159 149 149 148 135 118 97 52 52 59 199 190 187 188 186 189 199 202 211 210 214 200 186 204 196 189 192 183 174 166 176 183
184 185 186 186 185 145 129 139 176 175 165 159 166 184 186 138 158 156 147 163 161 16 270 236 205 204 196 200 209 219 220 233 232 185 209 214 207 215 198 166 165 181 189
184 184 185 185 181 162 150 165 196 192 183 176 177 182 184 166 163 171 175 175 186 186 206 225 220 227 221 205 217 230 229 223 223 205 213 236 214 223 213 176 174 187 196
184 188 186 187 188 173 163 176 209 191 184 189 188 186 194 179 121 238 196 188 192 189 166 155 158 178 150 185 227 227 216 222 227 211 208 244 236 235 231 212 184 187 196
186 189 184 188 189 185 165 177 214 207 192 199 189 187 164 163 148 205 208 201 202 205 198 182 184 191 198 196 204 225 227 231 234 223 192 233 239 241 241 228 205 192 202
Height
1546 1547 1547 1548 1549 1550 1551 1551 1552 1553 1554 1555 1555 1556 1557 1558 1558 1559 1559 1559 1559 1560 1560 1561 1561 1562 1562 1563 1563 1564 1565 1565 1566 1567 1568 1568 1569 1570 1571 1572 1572 1573 1573
1547 1548 1549 1549 1550 1551 1552 1552 1553 1553 1554 1555 1555 1556 1557 1557 1557 1558 1559 1559 1559 1559 1559 1560 1560 1561 1561 1561 1562 1562 1563 1563 1564 1565 1565 1566 1567 1568 1569 1569 1570 1571 1571
1549 1549 1550 1550 1551 1552 1552 1553 1553 1554 1555 1555 1555 1556 1556 1557 1557 1558 1558 1559 1559 1558 1558 1559 1559 1559 1560 1560 1560 1561 1561 1561 1562 1562 1562 1563 1565 1565 1566 1567 1567 1568 1568
1550 1550 1551 1552 1552 1553 1553 1553 1554 1554 1555 1555 1556 1556 1556 1556 1557 1557 1558 1558 1558 1558 1558 1558 1558 1559 1559 1559 1559 1559 1559 1559 1559 1560 1560 1561 1562 1562 1563 1564 1564 1565 1565
1550 1551 1551 1551 1552 1553 1553 1554 1554 1555 1555 1555 1556 1556 1557 1556 1556 1557 1557 1557 1557 1557 1557 1557 1557 1557 1557 1558 1558 1557 1557 1557 1557 1557 1557 1558 1558 1559 1560 1560 1561 1561 1562
1551 1551 1552 1552 1552 1553 1553 1553 1554 1554 1555 1555 1556 1556 1556 1556 1556 1557 1557 1557 1557 1557 1557 1557 1557 1556 1556 1556 1556 1556 1556 1555 1555 1555 1555 1555 1555 1556 1557 1557 1558 1558 1559
1551 1551 1552 1552 1552 1553 1553 1554 1554 1554 1555 1555 1556 1556 1556 1556 1556 1556 1556 1557 1557 1557 1556 1556 1556 1556 1556 1555 1555 1554 1554 1554 1553 1553 1553 1553 1553 1553 1554 1554 1555 1555 1555
1551 1552 1551 1552 1552 1552 1552 1553 1553 1554 1555 1555 1556 1556 1556 1557 1556 1556 1556 1556 1556 1556 1556 1556 1555 1555 1555 1555 1554 1553 1553 1552 1552 1551 1551 1551 1551 1550 1551 1551 1552 1552 1552
1551 1551 1551 1552 1552 1553 1553 1552 1553 1553 1554 1554 1554 1555 1555 1555 1556 1556 1556 1556 1555 1555 1555 1555 1555 1554 1554 1553 1553 1552 1552 1551 1550 1550 1549 1549 1549 1549 1549 1549 1549 1549 1549
1551 1551 1551 1551 1551 1553 1552 1552 1553 1553 1553 1553 1553 1553 1554 1554 1555 1555 1556 1555 1555 1555 1555 1555 1554 1553 1553 1553 1552 1551 1550 1550 1549 1549 1548 1548 1548 1548 1547 1547 1547 1547 1547
1550 1551 1551 1551 1551 1551 1551 1551 1551 1551 1552 1552 1553 1552 1552 1553 1553 1554 1554 1555 1555 1555 1554 1554 1553 1553 1553 1552 1551 1550 1549 1549 1548 1548 1547 1547 1547 1546 1546 1546 1545 1545 1545
1551 1551 1551 1550 1550 1551 1550 1550 1550 1550 1551 1551 1551 1552 1552 1552 1552 1552 1552 1553 1554 1554 1554 1553 1553 1552 1552 1551 1550 1549 1549 1548 1548 1547 1546 1546 1545 1545 1545 1544 1544 1544 1543
1551 1550 1551 1550 1550 1550 1549 1550 1549 1549 1550 1549 1549 1550 1550 1550 1551 1551 1551 1552 1552 1553 1553 1553 1552 1552 1551 1551 1550 1549 1548 1548 1547 1546 1545 1545 1544 1544 1544 1543 1543 1542 1542
1550 1550 1550 1549 1549 1549 1549 1549 1549 1548 1548 1548 1548 1548 1548 1549 1549 1549 1549 1550 1551 1552 1552 1552 1552 1551 1551 1550 1550 1549 1548 1547 1547 1546 1545 1544 1544 1543 1543 1542 1542 1541 1541
1548 1548 1548 1548 1548 1548 1548 1548 1548 1547 1547 1547 1547 1547 1547 1547 1547 1547 1548 1548 1550 1550 1550 1550 1551 1550 1550 1550 1549 1549 1548 1547 1546 1546 1545 1544 1543 1543 1542 1542 1541 1540 1540
1546 1547 1547 1547 1547 1547 1547 1547 1547 1546 1546 1546 1545 1545 1545 1546 1546 1546 1546 1547 1547 1548 1548 1549 1549 1550 1549 1550 1548 1548 1548 1547 1546 1546 1545 1545 1544 1543 1542 1542 1541 1541 1540
1546 1546 1546 1546 1546 1546 1546 1546 1546 1545 1545 1545 1544 1544 1544 1544 1544 1544 1544 1545 1546 1546 1547 1547 1548 1548 1548 1548 1548 1548 1548 1547 1546 1546 1545 1545 1544 1543 1543 1542 1542 1541 1540
1545 1545 1545 1545 1545 1545 1544 1544 1544 1544 1543 1543 1543 1543 1543 1543 1542 1543 1543 1544 1544 1544 1545 1545 1546 1546 1546 1547 1547 1547 1548 1548 1547 1545 1545 1544 1544 1543 1543 1542 1542 1541 1541
1543 1543 1543 1543 1543 1543 1543 1542 1542 1542 1542 1541 1541 1541 1541 1541 1541 1541 1541 1542 1543 1543 1544 1544 1545 1545 1546 1546 1546 1546 1547 1546 1547 1545 1544 1544 1544 1543 1543 1542 1542 1541 1541
1540 1540 1541 1541 1541 1541 1541 1540 1540 1539 1539 1539 1539 1539 1539 1540 1539 1540 1540 1540 1541 1541 1542 1543 1544 1544 1544 1545 1545 1545 1546 1546 1546 1546 1544 1544 1543 1543 1542 1542 1541 1541 1541
1538 1538 1539 1539 1539 1539 1539 1538 1538 1538 1537 1538 1537 1538 1538 1538 1537 1538 1539 1539 1539 1540 1541 1542 1542 1543 1543 1543 1544 1544 1544 1544 1544 1544 1544 1543 1543 1542 1541 1541 1540 1540 1540
1535 1536 1536 1537 1537 1537 1537 1536 1536 1536 1536 1536 1535 1537 1537 1537 1536 1536 1536 1537 1538 1538 1539 1540 1540 1541 1541 1542 1542 1542 1543 1543 1543 1543 1542 1542 1542 1541 1541 1540 1539 1538 1538
1532 1533 1534 1534 1534 1534 1534 1534 1534 1534 1535 1534 1534 1536 1537 1536 1536 1535 1535 1535 1536 1536 1537 1538 1539 1539 1539 1539 1539 1540 1540 1540 1540 1540 1540 1540 1540 1540 1539 1538 1537 1537 1537
1529 1530 1530 1531 1531 1532 1532 1532 1532 1533 1533 1533 1534 1534 1534 1534 1535 1534 1535 1535 1535 1535 1535 1536 1536 1537 1537 1537 1537 1538 1538 1538 1538 1538 1538 1538 1538 1538 1537 1536 1535 1535 1535
1525 1526 1527 1528 1528 1529 1529 1530 1530 1531 1531 1531 1532 1532 1532 1533 1532 1533 1533 1533 1533 1533 1534 1533 1534 1534 1534 1534 1535 1535 1536 1536 1536 1536 1535 1536 1536 1535 1535 1534 1533 1533 1533
1522 1524 1524 1525 1525 1526 1526 1527 1527 1528 1529 1530 1530 1530 1530 1530 1530 1531 1531 1531 1532 1532 1532 1532 1531 1531 1532 1532 1532 1532 1533 1533 1533 1533 1532 1533 1533 1533 1533 1532 1532 1531 1530